Wakefield, VA

9:52 PM EDT on June 25, 2017 (GMT -0400)
Wakefield Municipal

Weather History for KAKQ - November, 2012

Change the Weather History Date:

Tuesday, November 13, 2012

  Actual Average (KJGG) Record (KJGG)
Temperature  
Mean Temperature 53 °F -  
Max Temperature 64 °F 59 °F 76 °F (1958)
Min Temperature 42 °F 37 °F 20 °F (1987)
Degree Days  
Heating Degree Days 12    
Growing Degree Days 3 (Base 50)    
Moisture  
Dew Point 45 °F    
Average Humidity 87    
Maximum Humidity 94    
Minimum Humidity 65    
Precipitation  
Precipitation 0.14 in - - ()
Sea Level Pressure  
Sea Level Pressure 30.32 in    
Wind  
Wind Speed 6 mph (NNE)    
Max Wind Speed 14 mph    
Max Gust Speed 26 mph    
Visibility 8 miles    
Events Rain    
Averages and records for this station are not official NWS values.
T = Trace of Precipitation, MM = Missing Value Source: NWS Daily Summary

Daily Weather History Graph

Daily Weather History Graph

Search for Another Location

Airport or City:

Trip Planner

Search our weather history database for the weather conditions in past years. The results will help you decide how hot, cold, wet, or windy it might be!

Date:

Astronomy

Nov. 13, 2012 Rise Set
Actual Time 6:44 AM EST 4:59 PM EST
Civil Twilight 6:17 AM EST 5:26 PM EST
Nautical Twilight 5:46 AM EST 5:58 PM EST
Astronomical Twilight 5:15 AM EST 6:28 PM EST
Moon 6:20 AM EST (11/13) 4:51 PM EST (11/13)
Length of Visible Light 11h 09m
Length of Day
10h 14m
Waning Crescent, 0% of the Moon is Illuminated
Nov 13
Waning Crescent
Nov 13
New
Nov 20
First Quarter
Nov 28
Full
Dec 6
Last Quarter

Hourly Weather History & Observations

Time (EST) Temp. Windchill Dew Point Humidity Pressure Visibility Wind Dir Wind Speed Gust Speed Precip Events Conditions
12:54 AM 64.0 °F - 60.1 °F 87% 30.18 in 10.0 mi Variable 3.5 mph - N/A   Partly Cloudy
1:54 AM 63.0 °F - 60.1 °F 90% 30.18 in 10.0 mi Calm Calm - N/A   Clear
2:54 AM 64.0 °F - 60.1 °F 87% 30.17 in 10.0 mi Variable 4.6 mph - N/A   Partly Cloudy
3:54 AM 64.0 °F - 60.1 °F 87% 30.16 in 10.0 mi Variable 3.5 mph - N/A   Mostly Cloudy
4:54 AM 64.0 °F - 60.1 °F 87% 30.17 in 10.0 mi Variable 3.5 mph - N/A   Overcast
5:54 AM 63.0 °F - 60.1 °F 90% 30.18 in 8.0 mi Calm Calm - 0.01 in Rain Light Rain
6:33 AM 60.8 °F - 59.0 °F 94% 30.22 in 4.0 mi NNW 13.8 mph 24.2 mph N/A Rain Light Rain
6:41 AM 53.6 °F - 51.8 °F 94% 30.23 in 2.5 mi North 12.7 mph 26.5 mph 0.08 in Rain Rain
6:47 AM 51.8 °F - 50.0 °F 94% 30.24 in 6.0 mi North 13.8 mph 25.3 mph 0.08 in Rain Light Rain
6:54 AM 51.1 °F - 48.0 °F 89% 30.25 in 6.0 mi North 11.5 mph 23.0 mph 0.09 in Rain Light Rain
7:24 AM 48.2 °F - 46.4 °F 93% 30.27 in 10.0 mi NNE 9.2 mph 23.0 mph 0.00 in Rain Light Rain
7:33 AM 48.2 °F - 46.4 °F 93% 30.28 in 5.0 mi North 11.5 mph 18.4 mph 0.00 in Rain Light Rain
7:54 AM 48.9 °F - 46.0 °F 90% 30.30 in 9.0 mi NNE 9.2 mph 16.1 mph 0.00 in   Overcast
8:31 AM 48.2 °F - 44.6 °F 87% 30.31 in 10.0 mi NNE 10.4 mph 21.9 mph N/A   Overcast
8:49 AM 46.4 °F 41.1 °F 44.6 °F 93% 30.34 in 10.0 mi North 11.5 mph 17.3 mph N/A   Overcast
8:54 AM 46.9 °F - 44.1 °F 90% 30.35 in 10.0 mi North 9.2 mph 24.2 mph N/A   Overcast
9:07 AM 46.4 °F 41.9 °F 42.8 °F 87% 30.36 in 8.0 mi NNE 9.2 mph 21.9 mph 0.00 in Rain Light Rain
9:09 AM 46.4 °F 41.5 °F 42.8 °F 87% 30.36 in 7.0 mi NNE 10.4 mph 21.9 mph 0.00 in Rain Light Rain
9:49 AM 46.4 °F 42.9 °F 44.6 °F 93% 30.37 in 3.0 mi NNE 6.9 mph - 0.01 in Rain Light Rain
9:54 AM 46.0 °F 43.1 °F 44.1 °F 93% 30.37 in 4.0 mi Variable 5.8 mph - 0.01 in Rain Light Rain
10:22 AM 46.4 °F 41.9 °F 42.8 °F 87% 30.37 in 7.0 mi NNE 9.2 mph - 0.00 in Rain Light Rain
10:54 AM 46.0 °F 41.4 °F 42.1 °F 86% 30.37 in 8.0 mi NNE 9.2 mph 17.3 mph 0.00 in Rain Light Rain
11:06 AM 44.6 °F 40.2 °F 42.8 °F 93% 30.36 in 10.0 mi NNE 8.1 mph 16.1 mph 0.00 in Rain Light Rain
11:54 AM 46.0 °F 42.5 °F 42.1 °F 86% 30.36 in 7.0 mi North 6.9 mph - 0.00 in Rain Light Rain
12:32 PM 44.6 °F 41.4 °F 42.8 °F 93% 30.35 in 4.0 mi NNE 5.8 mph - 0.02 in Rain Light Rain
12:54 PM 44.1 °F 39.0 °F 42.1 °F 93% 30.34 in 5.0 mi NNE 9.2 mph - 0.02 in Rain Light Rain
1:13 PM 44.6 °F 39.7 °F 41.0 °F 87% 30.33 in 5.0 mi NNE 9.2 mph 16.1 mph 0.00 in   Overcast
1:54 PM 43.0 °F 37.7 °F 37.0 °F 80% 30.33 in 10.0 mi NNE 9.2 mph - 0.00 in   Overcast
2:54 PM 44.1 °F 40.8 °F 39.0 °F 82% 30.35 in 10.0 mi North 5.8 mph - 0.00 in Rain Light Rain
3:54 PM 44.1 °F 41.5 °F 39.0 °F 82% 30.36 in 10.0 mi Variable 4.6 mph - 0.00 in   Overcast
4:54 PM 43.0 °F 41.3 °F 37.9 °F 82% 30.37 in 10.0 mi North 3.5 mph - 0.00 in   Overcast
5:25 PM 42.8 °F 41.1 °F 39.2 °F 87% 30.36 in 8.0 mi NNE 3.5 mph - 0.01 in Rain Light Rain
5:54 PM 43.0 °F 41.3 °F 39.0 °F 86% 30.38 in 10.0 mi NNE 3.5 mph - 0.01 in Rain Light Rain
6:54 PM 43.0 °F - 39.9 °F 89% 30.40 in 10.0 mi Calm Calm - 0.00 in   Overcast
7:54 PM 44.1 °F 42.5 °F 39.9 °F 85% 30.41 in 10.0 mi NNE 3.5 mph - N/A   Overcast
8:54 PM 44.1 °F - 39.0 °F 82% 30.43 in 10.0 mi Calm Calm - N/A   Overcast
9:54 PM 44.1 °F 41.5 °F 37.9 °F 79% 30.43 in 10.0 mi North 4.6 mph - N/A   Overcast
10:54 PM 44.1 °F 40.1 °F 34.0 °F 68% 30.44 in 10.0 mi NNE 6.9 mph - N/A   Overcast
11:54 PM 42.1 °F 37.1 °F 30.9 °F 65% 30.45 in 10.0 mi NNE 8.1 mph - N/A   Overcast